User: anonymous   Login
Location: Rometta
(44.2000°N, 10.0500°E)
Time: 19:58:44
(UTC+00:00)
Language:

PSLV R/B - Orbit

View from above orbital plane
View from above orbital plane
View from above satellite
View from above satellite

Ground track
Ground track

The orbit data is extracted from the following two-line orbital elements,

1 36800U 10035F   21110.54463452  .00000634  00000-0  63729-4 0  9998
2 36800  98.1622 306.4566 0022615  28.5517 331.6935 14.94908212586505
Epoch (UTC): 20 April 2021 13:04:16
Eccentricity: 0.0022615
inclination: 98.1622°
perigee height: 567 km
apogee height: 598 km
right ascension of ascending node: 306.4566°
argument of perigee: 28.5517°
revolutions per day: 14.94908212
mean anomaly at epoch: 331.6935°
orbit number at epoch: 58650

The dashed part of the orbit path shows where the satellite is in the earth's shadow,  

DLR